STARLINK-3851, 52344

Orbit data source: Space-Track

STARLINK-3851, 52344 is a payload satellite owned by SpaceX/Seattle (US) in LEO that was launched on Fri, 29 Apr 2022 UTC via an FALCON 9 launch vehicle from the Air Force Eastern Test Range (AFETR). Payload-class satellites include a variety of spacecraft equipped with specific instruments for various scientific and technological missions. These include communications satellites like Starlink; space stations such as the ISS; scientific satellites like the Hubble; Earth observation satellites from companies like Planet Labs, Umbra, and HawkEye 360; GPS; miniature CubeSats for education and research; and military/defense satellites.

Loading next visibility...
Identifier
52344, 2022-045P
Orbit
LEO
Country
Flag of USUS
Related business
Manufacturer
SpaceX/Seattle
Mission
Operational Commercial Communications
Bus & Motor
STARLINK, Unknown motor
Mass
297 kg wet, ~275 kg dry
Launch date (UTC)
2022-04-29 (4 years ago)
Launch vehicle
FALCON 9
Launch site
Air Force Eastern Test Range (AFETR)
Object type
Payload
Rocket body
Debris
Shape & HBR
Box + 1 Pan, 10.1 m
Radar Cross Section
11.087 m², Large (>1 m²)

Expand to show TLE details & history
Last TLE update: 20 hours ago

TLE from 20 hours ago
0 STARLINK-3851
1 52344U 22045P   25348.92740715  .00000411  00000-0  43948-4 0  9996
2 52344  53.2170 219.6982 0001441  93.7795 266.3362 15.08835046202984
Epoch: 2025-12-14T22:15Z
TLE epoch observation values (Epoch: 2025-12-14T22:15:27.977Z)
Latitude
-0.00003°
Longitude
161.9983°
Altitude
540.72 km
Speed
7.593 km/s
True Right ascension
14h 38m 47s
True Declination
0° 00' 00"
Sunlit
Object was in daylight at epoch
Visualization orbit readout
Latitude
Unknown
Longitude
Unknown
Altitude
Unknown
Speed
Unknown
Apparent Right ascension
Unknown
Apparent Declination
Unknown
Sunlit
N/A
Visualization observer readout
Local Sidereal Time
17:21:59
Azimuth
Unknown
Elevation
Unknown
Doppler factor
Unknown
Orbital elements
Apogee altitude
541 km
Perigee altitude
539.007 km
Semi-major axis
6,918.141 km
Eccentricity
0.00014
Inclination
53.217°
RAAN
219.6982°
Arg. of periapsis
93.7795°
True anomaly
266.31972°
Mean anomaly
266.3362°
Eccentric anomaly
266.32796°
Mean motion
3.77189 °/min
Orbital period
95.44 mins
BSTAR
0.000043948
Loading maneuver chart data...
Computing Atmospheric mass density...
Loading historical data...
Loading historical data...
Loading historical data...
Loading historical data...
Loading historical data...
Loading historical data...
Loading historical data...

Documentation

Showing up to 5 results
|